Retour au catalogue

TITAN 3C TRANSTAGE DEB

LostMEO
NORAD 8832·DEBRIS·🇺🇸 United States

Lancé Mar 15, 1976 depuis Cape Canaveral Space Force Station

Loading…

Prochains Passages (prochaines 24 heures)

TLE

PériméSource: Space-Track

Époque: Jul 25, 2026, 06:18 UTC

1 08832U 76023J   26206.26288565 -.00000047  00000-0  00000-0 0  9999
2 08832  21.9310  42.2307 0139481  99.7415 137.4545  0.98258649117973

Suivez TITAN 3C TRANSTAGE DEB en temps réel avec AllMySat

Download on the App Store